Tracking 28792 objects as of 25-Apr-2024
HD Live streaming from Space Station
objects crossing your sky now

COSMOS 249 DEB

Track COSMOS 249 DEB now!
10-day predictions


NORAD ID: 3509
Int'l Code: 1968-091F
Perigee: 444.1 km
Apogee: 777.7 km
Inclination: 62.4 °
Period: 96.8 minutes
Semi major axis: 6981 km
RCS: 0.036 m2 (small)
Launch date: October 20, 1968
Source: Commonwealth of Independent States (former USSR) (CIS)
Launch site: TYURATAM MISSILE AND SPACE COMPLEX (TTMTR)

Note: This is SATELLITE DEBRIS
Your satellite tracking list
Your tracking list is empty




NASA's NSSDC Master Catalog

Two Line Element Set (TLE):
1 03509U 68091F   24115.63099365  .00027017  00000-0  17172-2 0  9992
2 03509  62.3557 215.3962 0238933 340.8563  18.3655 14.88137574789372
Source of the keplerian elements: AFSPC